Voltar ao catálogo

THOR ABLESTAR DEB

AtivoLEO
NORAD 123·DEBRIS·🇺🇸 United States

Lançado Jun 29, 1961 de Cape Canaveral Space Force Station

Loading…

Próximas Passagens (próximas 24 horas)

TLE

AtualizadoSource: Space-Track

Época: Sep 14, 2026, 04:38 UTC

1 00123U 61015H   26257.19343193  .00000246  00000-0  97092-4 0  9997
2 00123  66.6860 190.4450 0112156 207.1124 152.4097 14.41782945392362

Acompanhe THOR ABLESTAR DEB em tempo real com AllMySat

Download on the App Store